This is the latest recevied weather packets stored in our database for station/object DD8XX-10. If no packets are shown the sender has not sent any weather packets the latest 10 day(s).
| Time | Temp. | Humidity | Pressure | Rain* | Wind** | Luminosity | Snow |
|---|---|---|---|---|---|---|---|
| 1777426705 | 10° C | 76% | 1023.1 hPa | - | - | - | - |
| 1777425812 | 10.56° C | 73% | 1023.1 hPa | - | - | - | - |
| 1777425805 | 10.56° C | 73% | 1023.1 hPa | - | - | - | - |
| 1777424912 | 10° C | 75% | 1023.2 hPa | - | - | - | - |
| 1777424905 | 10° C | 75% | 1023.2 hPa | - | - | - | - |
| 1777424004 | 10° C | 75% | 1023.1 hPa | - | - | - | - |
| 1777423112 | 10.56° C | 74% | 1023 hPa | - | - | - | - |
| 1777423104 | 10.56° C | 74% | 1023 hPa | - | - | - | - |
| 1777422212 | 10° C | 75% | 1023.2 hPa | - | - | - | - |
| 1777422204 | 10° C | 75% | 1023.2 hPa | - | - | - | - |
| 1777421312 | 10.56° C | 73% | 1023.2 hPa | - | - | - | - |
| 1777421304 | 10.56° C | 73% | 1023.2 hPa | - | - | - | - |
| 1777420407 | 10.56° C | 74% | 1023.3 hPa | - | - | - | - |
| 1777420403 | 10.56° C | 74% | 1023.3 hPa | - | - | - | - |
| 1777419503 | 10.56° C | 72% | 1023.3 hPa | - | - | - | - |
| 1777418603 | 10.56° C | 71% | 1023.4 hPa | - | - | - | - |
| 1777417703 | 10.56° C | 73% | 1023.4 hPa | - | - | - | - |
| 1777416803 | 10.56° C | 72% | 1023.4 hPa | - | - | - | - |
| 1777415903 | 10.56° C | 72% | 1023.4 hPa | - | - | - | - |
| 1777415003 | 11.11° C | 71% | 1023.3 hPa | - | - | - | - |
| 1777414103 | 11.11° C | 71% | 1023.3 hPa | - | - | - | - |
| 1777413202 | 11.67° C | 70% | 1023.3 hPa | - | - | - | - |
| 1777412302 | 11.67° C | 69% | 1023.2 hPa | - | - | - | - |
| 1777411402 | 11.67° C | 70% | 1023.2 hPa | - | - | - | - |
| 1777410502 | 11.67° C | 71% | 1023.1 hPa | - | - | - | - |
* Rain since midnight (hover to see other rain measurements)
** Current wind speed in m/s (hover to see current wind gust speed)